Dewpoint
60 60 60 60 57 55 54 54 54 54 54 54 54 54 54 54 53 53 53 53 52 52 51 51 51 51 52 52 51 51 51 51 51 52 52 52 51 51 51 51 51 51 51 51 51 51 51 51 51 51 51 51 51 51 51 51 51 51 51 51 51 51 50 50 51 51 50 50 51
60 60 60 60 57 55 54 54 54 54 54 54 53 53 53 54 53 53 53 53 53 53 52 52 52 52 52 52 52 52 51 51 52 52 52 52 52 52 52 52 52 52 52 52 51 51 52 51 51 51 51 51 51 51 51 51 51 51 51 51 51 51 51 51 51 51 51 50 51
60 60 60 60 57 55 54 54 54 53 53 53 53 53 53 53 53 53 53 53 53 53 53 53 53 53 53 53 53 53 52 52 52 53 53 53 52 52 52 53 52 52 52 52 52 52 52 52 52 52 52 52 52 52 51 51 51 51 51 51 51 51 51 51 51 51 51 51 51
60 60 60 59 56 55 54 53 53 53 53 53 53 53 53 53 53 53 53 53 54 54 54 54 54 54 54 54 54 53 53 53 53 53 53 53 53 52 52 53 52 52 52 52 52 52 52 52 52 52 52 52 52 52 52 52 51 52 52 51 52 52 52 52 52 51 51 51 51
60 60 59 57 55 54 54 54 53 53 53 53 53 53 53 53 53 53 53 53 53 54 54 54 54 54 54 54 54 54 54 54 54 54 54 54 53 53 53 52 52 52 52 52 52 52 52 51 52 53 52 52 52 52 52 52 52 52 52 53 53 52 52 52 52 52 52 51 51
60 59 57 56 55 54 54 54 54 54 53 53 53 53 53 53 53 53 53 53 53 54 54 54 54 54 54 54 55 54 54 54 54 54 54 54 54 53 52 52 52 52 52 52 52 52 52 52 53 53 53 53 53 53 52 52 52 52 52 52 53 53 52 52 52 52 52 51 51
59 57 55 55 55 55 55 54 54 54 54 53 53 53 53 53 53 53 53 53 54 54 54 54 54 54 54 54 54 55 55 55 55 55 54 55 54 53 53 53 52 52 52 52 52 52 52 52 53 53 53 53 53 52 52 51 52 52 52 52 53 53 52 52 52 52 52 51 51
58 56 55 55 55 55 55 55 55 54 54 54 53 53 53 53 53 54 54 54 54 54 54 54 54 54 54 54 54 54 55 55 55 55 55 55 54 53 53 52 52 52 52 52 52 52 52 53 53 53 53 53 53 53 51 51 51 51 52 52 53 52 52 52 52 52 52 51 50
56 55 55 56 55 55 55 55 55 55 54 54 54 54 54 54 54 54 54 54 54 54 54 54 54 54 54 54 54 54 54 54 55 55 55 54 54 53 53 53 52 52 52 53 53 52 52 53 53 53 53 53 53 53 52 51 51 51 52 52 52 52 52 52 51 51 51 51 51
55 56 56 56 55 55 55 55 55 55 54 54 54 54 54 54 54 54 54 54 54 54 54 54 54 54 54 54 54 54 54 54 54 54 54 54 54 54 53 54 53 53 53 53 53 53 52 53 53 53 53 53 53 52 52 51 51 51 52 53 52 52 51 51 51 51 51 52 52
55 55 55 55 55 55 55 55 55 55 55 55 54 54 54 55 54 54 54 54 54 54 54 54 54 54 54 54 54 54 54 54 54 54 54 54 54 54 54 54 54 54 54 54 53 53 53 53 53 53 52 53 53 52 52 51 51 51 52 52 52 51 51 51 51 51 52 53 53
55 55 55 55 55 55 55 55 55 55 55 55 55 55 55 55 55 55 55 55 54 54 54 54 54 54 54 54 54 54 54 54 54 54 54 54 54 54 54 54 54 54 54 54 54 54 54 53 53 53 52 52 53 53 53 52 52 52 52 51 51 51 51 51 52 53 53 54 54
55 55 55 55 55 55 55 55 55 55 55 55 55 55 55 55 55 55 55 55 55 55 55 55 54 54 54 54 54 54 54 54 54 54 54 54 54 54 54 54 54 54 54 54 54 54 54 53 53 53 53 53 53 53 53 52 52 52 52 52 51 52 52 53 53 54 54 54 54
55 55 55 55 55 55 55 55 55 55 55 55 55 55 55 55 55 55 55 55 55 55 55 54 54 54 54 54 54 54 54 54 54 54 54 54 54 54 54 54 54 54 54 54 54 54 54 54 54 54 53 53 53 54 54 53 53 53 53 53 53 53 54 54 54 54 54 54 54
55 55 55 55 55 55 55 55 55 55 55 55 55 55 55 55 55 55 55 55 55 55 55 55 55 54 54 54 54 54 54 54 54 54 54 54 54 54 54 54 54 54 54 54 54 54 54 54 54 54 54 54 54 54 54 54 54 54 54 54 54 54 54 54 54 54 54 54 54
55 55 55 55 55 55 55 55 55 55 55 55 55 55 55 55 55 55 55 55 55 55 55 55 54 54 54 54 54 54 54 54 54 54 54 54 54 54 54 54 54 54 54 54 54 54 54 54 54 54 54 54 54 54 54 54 55 55 55 55 55 55 55 55 55 55 55 55 55
55 55 55 55 55 55 55 55 55 55 55 55 55 55 55 55 55 55 55 55 55 55 54 54 54 54 54 53 54 54 54 54 54 54 54 54 54 54 54 54 54 54 55 54 54 54 54 54 55 55 55 55 55 55 55 55 55 55 55 55 55 55 55 55 55 55 55 55 55
55 55 55 55 55 55 55 55 55 55 55 55 55 55 55 55 55 55 55 55 55 55 54 54 54 54 54 54 54 54 54 54 54 54 54 54 54 54 54 54 55 55 55 55 55 55 55 55 55 55 55 55 55 55 55 55 55 55 55 55 55 55 55 55 55 55 55 56 56
55 55 55 55 55 55 55 55 55 55 54 54 54 54 54 54 54 54 55 55 55 55 54 54 54 54 54 54 54 55 55 55 55 55 55 55 55 55 55 55 55 55 55 55 55 55 55 55 55 55 55 55 55 55 55 55 55 55 55 55 55 55 55 55 55 56 56 57 57
55 55 55 55 55 54 54 55 54 54 54 54 54 54 54 54 54 54 54 54 54 54 54 54 54 54 55 55 55 55 55 55 55 55 55 55 55 55 55 55 55 55 55 55 55 55 55 55 55 55 55 55 55 55 55 55 55 55 55 55 55 55 56 56 56 56 56 56 56
54 55 55 55 55 55 55 55 55 54 54 54 54 54 53 53 54 54 54 54 54 54 54 55 54 55 55 55 55 55 55 55 55 55 55 55 55 55 55 55 55 55 55 55 55 55 55 55 55 55 55 55 55 55 55 55 55 55 55 55 55 55 55 55 55 55 55 55 55
52 52 53 54 54 54 54 54 54 55 54 54 54 53 53 53 53 53 53 53 54 55 55 55 55 55 55 55 55 55 55 55 55 55 55 55 55 55 55 55 55 55 55 55 54 54 54 54 54 54 55 55 55 55 55 55 55 55 55 55 55 55 54 54 54 54 53 53 53
50 50 50 51 51 51 52 52 52 52 52 52 52 52 53 53 54 54 54 55 55 55 55 55 55 55 55 55 55 55 55 55 55 55 55 55 55 55 55 55 55 55 55 55 54 54 53 53 52 52 52 54 54 55 55 54 54 54 54 54 54 53 52 52 51 51 51 51 51
49 49 49 49 50 50 50 50 50 50 50 50 49 50 50 50 50 50 51 51 53 53 54 55 55 55 55 54 54 54 54 54 54 53 54 54 54 55 55 55 55 54 54 54 54 54 54 53 52 52 52 53 54 54 54 54 54 53 53 53 52 51 51 50 50 50 50 50 50
49 49 49 49 49 49 50 50 50 49 49 49 49 49 49 49 48 48 48 48 49 49 50 51 51 51 51 51 51 51 52 52 52 53 53 54 54 54 54 54 54 54 54 54 54 54 54 54 53 52 51 51 51 51 51 51 51 51 52 52 51 51 51 50 50 49 49 48 49
50 50 50 50 50 50 50 50 50 50 50 50 50 50 49 49 49 49 48 48 48 48 48 48 49 49 49 49 50 50 51 51 52 52 53 53 52 52 52 52 52 52 53 53 53 54 54 54 53 51 50 49 50 51 51 50 50 51 51 51 51 50 50 50 49 49 48 48 48
51 51 51 51 51 51 51 50 50 50 50 50 50 50 50 49 49 49 49 48 48 48 48 49 49 49 50 50 50 50 51 51 52 52 51 51 51 51 51 51 52 52 53 53 54 54 54 54 53 52 51 50 50 50 50 50 49 49 49 49 49 49 49 49 49 48 48 47 46
53 53 53 53 53 53 53 53 52 52 52 51 51 51 51 50 50 50 50 50 49 50 50 50 50 50 51 51 51 51 51 51 51 51 51 50 50 50 51 51 51 52 53 53 53 54 54 54 53 52 52 51 50 49 49 49 49 49 49 49 49 48 48 48 48 47 47 46 45
54 54 54 55 55 55 55 55 55 54 54 54 53 53 53 52 52 51 51 51 51 51 51 51 52 52 51 51 51 51 51 50 50 50 49 49 49 50 50 51 51 52 52 53 53 54 54 54 53 53 52 51 51 51 51 50 50 50 49 49 48 47 46 46 46 46 46 45 45
54 55 55 55 55 55 55 55 55 55 55 55 54 54 53 53 53 52 52 52 52 52 52 52 52 52 51 51 51 50 50 49 49 49 48 48 49 49 49 50 51 51 52 52 53 53 54 54 54 53 52 52 51 51 51 50 50 49 48 47 46 46 45 45 44 44 44 44 44
54 54 54 54 55 55 55 55 55 55 55 54 54 53 53 53 52 52 52 53 53 53 53 52 52 51 51 51 50 50 49 49 48 48 48 48 48 48 49 49 50 51 52 52 53 53 54 54 54 53 53 52 51 51 50 48 47 46 46 45 44 44 44 44 43 43 43 42 42
53 53 54 54 54 54 54 54 54 54 54 54 53 53 52 52 52 52 52 51 52 52 52 52 51 51 51 50 50 49 49 48 48 48 48 47 47 48 48 49 50 51 51 52 53 53 53 53 52 52 51 50 49 48 47 46 46 45 44 43 43 42 42 42 42 42 42 42 42
53 53 53 53 54 54 54 54 53 53 53 53 53 53 52 52 52 51 51 51 52 52 52 52 51 51 51 51 50 49 49 48 48 48 48 47 47 47 47 48 49 51 51 52 53 53 52 52 51 51 50 49 48 47 46 46 45 44 44 43 42 42 41 40 40 40 41 41 41
52 52 52 53 53 53 53 53 53 53 53 53 53 53 53 52 52 52 52 52 52 52 52 52 52 51 51 51 50 49 48 48 47 47 47 47 47 47 47 48 49 50 51 52 52 52 52 51 51 50 49 48 47 46 45 45 44 43 43 42 42 41 40 39 38 38 39 40 40
52 52 52 52 52 53 53 53 53 53 53 53 53 53 53 53 53 52 52 51 51 51 51 51 51 51 51 50 50 49 48 47 46 46 46 46 46 46 46 47 49 50 51 52 52 51 51 51 50 49 48 47 46 46 45 44 43 43 42 42 42 40 39 37 37 36 36 37 39
51 51 51 51 52 52 52 52 52 52 52 52 53 53 53 53 53 52 52 51 51 51 50 50 50 50 49 49 48 48 47 46 46 46 46 46 46 46 46 47 48 49 50 51 51 51 51 50 49 49 48 47 46 45 44 44 43 42 42 41 41 39 37 37 36 34 33 34 37
51 51 51 51 51 51 52 52 52 52 52 52 52 52 52 52 52 52 51 51 50 50 49 49 49 48 48 47 47 46 46 46 45 45 45 45 46 46 46 47 47 48 49 50 51 51 50 50 49 48 48 47 46 45 44 43 43 42 42 41 40 38 37 37 36 35 34 35 37
50 51 51 51 51 51 51 51 51 51 51 52 52 52 52 52 51 51 51 50 50 49 48 48 47 47 46 46 45 45 45 45 45 45 45 45 46 46 46 46 47 48 48 49 50 50 50 50 49 48 47 46 46 45 44 43 42 42 41 40 38 37 37 37 37 36 36 37 41
50 50 50 51 51 51 51 51 51 51 51 51 52 52 51 51 51 51 50 49 49 48 47 47 46 46 45 45 44 44 44 44 44 45 45 45 46 46 46 46 47 47 48 48 49 50 50 49 49 48 47 46 45 44 42 42 41 40 40 38 37 37 36 36 37 37 36 37 41
50 50 50 50 50 50 50 51 51 51 51 51 51 51 51 51 50 50 49 48 48 47 47 46 46 45 45 44 44 44 44 44 44 44 44 45 45 46 46 46 46 47 47 48 48 49 49 49 48 48 47 46 44 43 42 41 40 40 39 38 37 37 36 36 37 38 37 37 39
49 49 49 49 49 50 50 50 50 50 51 51 51 51 51 50 50 49 48 48 47 47 46 46 46 45 45 44 44 44 44 44 44 43 43 44 44 45 45 45 46 47 47 48 48 48 48 48 48 47 47 46 45 44 43 41 40 39 39 38 37 37 37 38 39 39 38 38 38